Vertical_Velocity
-1 -1 -2 -1 -0 -1 -2 -1 1 -0 -2 -0 2 2 3 4 5 -6 1 0 -2 -5 -6 -8 1 -5 12 -2 0 -3 -0 0 1 -3 -0 -2 -1 2 1 0 -2 -3 -0
-2 -2 1 -1 -1 -2 -1 -1 -2 1 2 1 0 -1 0 0 4 4 1 2 -0 -1 -1 1 2 1 -9 -3 1 -2 0 -2 -0 -2 -0 -3 -1 1 2 -3 -0 1 1
-2 -2 -1 0 1 -0 0 -2 1 1 0 0 -0 -0 -1 -0 -1 4 -1 -1 -3 0 1 -2 -1 -2 -1 -3 -5 1 3 -5 -1 1 2 -1 -1 -1 -3 1 -1 -2 -2
-1 -1 -1 -1 1 1 -1 -1 0 -0 -0 0 0 -0 -0 0 2 0 4 4 1 2 -1 2 4 0 -0 -6 -0 -4 -2 -4 2 0 -4 1 0 -3 -1 -1 -2 -1 -1
-1 -1 -2 -1 -1 2 -1 -1 -1 2 -1 -1 -0 -0 0 -1 -1 -0 -1 -2 -1 -2 2 -1 -2 -2 -3 0 5 -1 -5 1 -1 1 -0 3 1 2 -1 0 -1 -0 0
1 1 -0 -0 0 -0 -2 -1 -2 -0 -1 -1 -0 -1 -2 0 1 -1 -1 -1 1 3 -1 1 3 -2 -2 1 1 -4 -4 3 1 -1 2 1 -3 -2 0 9 -1 4 1
2 -2 -0 -1 -1 -0 1 -1 -2 -1 -0 -1 0 -0 -0 -0 -0 1 1 -1 -1 -1 1 -0 -1 -2 -1 2 3 2 -1 -1 -2 -2 -1 -2 2 2 -1 -2 -3 1 3
2 -1 -1 -2 -0 1 2 -1 -0 -1 2 1 -3 -0 -1 -2 -0 -1 0 -1 -0 0 1 1 -3 1 1 -3 0 2 1 -1 -2 -0 -2 -3 4 -2 -1 -2 -2 0 -1
2 -0 -1 1 0 -1 -0 2 1 -0 -1 -2 -1 -2 -2 -1 -1 -1 -1 -2 -2 0 0 0 2 2 1 4 -0 0 -0 0 2 -0 -1 2 -1 -1 3 0 -1 -0 1
1 -1 -1 1 1 0 -2 -1 0 -0 -1 -1 -3 -1 -3 -0 0 -1 -2 -3 -2 -0 -2 -2 0 -0 -1 1 -0 -0 -0 2 -1 -0 4 -4 -0 1 0 3 -1 1 0
-1 -2 -1 0 -2 1 -1 -1 -0 -2 -1 -0 -0 -2 -4 0 -1 -1 1 -3 -2 -0 -1 -2 -2 -2 0 -2 1 1 1 1 2 4 1 0 -1 -0 -1 0 1 4 2
0 0 0 1 1 0 -1 -0 1 -1 -1 -2 -0 0 1 -2 -1 -2 -1 -2 -4 -2 -0 -2 -0 0 -1 -0 -1 1 -0 -0 -1 1 3 2 0 -2 2 1 -1 1 -1
-1 2 -1 -1 -0 0 1 -1 -0 1 -1 2 -0 1 -2 -0 -0 -1 -2 -1 1 -1 -2 -2 -3 -1 -1 -2 0 -3 -0 1 1 -2 1 1 3 -1 -3 6 2 2 5
-1 1 -1 -0 -1 -1 -1 -0 -2 -1 0 -1 -1 -2 -0 -2 2 -2 -2 -0 -1 -0 -2 -2 -1 -2 -1 -1 -2 -1 -2 2 -2 -1 1 1 2 2 1 -1 3 -1 0
1 -1 -1 -0 -1 0 0 -1 -0 -0 -0 -0 -2 -1 1 -1 -2 -0 -2 0 -0 -2 -1 -2 -0 1 -1 -2 -2 -1 -0 1 -0 -1 1 0 -1 2 -1 0 -3 -1 0
-3 -2 -2 -1 -1 -0 0 1 -1 -0 0 -0 -0 1 -0 0 -0 0 -2 -2 -1 -0 1 2 1 -2 -1 1 -1 -2 -0 0 0 0 -1 2 1 1 1 2 -0 -1 1
-0 0 1 2 1 -1 -0 -0 -1 -1 0 0 -0 1 0 -0 -0 -1 0 1 1 -4 -2 -1 -1 -1 0 0 1 0 0 -1 1 -0 -2 -1 1 -2 -0 1 1 1 1
-1 0 0 -1 -1 1 1 0 -1 0 0 -1 -1 -0 -1 -2 -2 -1 -1 -2 -0 -2 -1 -2 -2 -2 -3 -1 1 -0 -0 -0 1 1 -1 -2 -1 1 -3 -3 -2 2 -1
0 -1 -0 0 0 -1 -3 -2 -1 -1 -1 -2 -2 -1 -2 -2 -2 -2 -2 -3 -3 -1 -1 -1 -3 -1 -0 -0 0 1 0 -0 -1 -0 2 -1 -2 -2 -2 -2 -1 0 -0
0 1 1 1 0 1 0 0 1 1 0 -0 1 0 -1 -1 -2 -2 -4 -4 -2 -2 -2 -3 -4 -5 -4 -2 0 3 1 -0 1 -2 -1 -1 -1 -0 -1 -1 -1 0 2
1 0 0 -0 -0 0 0 -0 -1 -2 -2 -1 -1 -2 -2 -2 -3 -3 -3 -2 -2 -3 -3 -3 -2 -4 -5 -5 -4 6 -2 -5 -1 -4 0 1 -0 -1 -2 -0 -0 -1 1
0 1 1 0 1 -0 -1 -2 -3 -3 -2 -2 -2 -2 -3 -2 -2 -3 -3 -3 -3 -5 -4 -4 -4 -3 -7 -9 -5 -5 -5 5 9 -2 -5 -2 -3 1 0 0 -1 -1 1
2 1 2 2 1 -1 -2 -1 -0 -1 -2 -2 -1 -2 -3 -4 -4 -2 -3 -3 -3 -4 -4 -3 -4 -3 -4 -7 -4 -10 -11 -5 -5 4 9 -2 -2 -3 1 -2 -0 -1 -3
3 4 2 1 1 1 1 1 1 1 -1 -2 -3 -3 -3 -3 -3 -2 -2 -3 -3 -4 -5 -4 -3 -4 -4 -5 -5 -5 -5 -10 -16 -11 10 4 4 2 -5 -1 -0 0 -3
4 2 4 4 3 1 1 0 0 -0 -2 -1 -1 -2 -2 -2 -2 -3 -3 -3 -3 -4 -5 -4 -3 -3 -4 -4 -5 -6 -4 -5 -8 -14 -10 -7 6 -0 2 -0 -0 -4 -4
4 5 3 2 2 2 2 2 1 0 -1 -1 -0 -1 -1 -2 -3 -2 -2 -3 -4 -4 -5 -5 -5 -4 -4 -5 -5 -6 -7 -11 -8 -13 -11 -2 -8 3 3 4 -1 -2 -3
Height
3173 3176 3177 3179 3180 3181 3180 3180 3181 3181 3181 3181 3181 3181 3181 3180 3179 3180 3180 3180 3180 3180 3179 3180 3180 3179 3180 3180 3181 3181 3182 3182 3182 3182 3182 3182 3182 3182 3182 3181 3182 3181 3181
3173 3175 3177 3178 3180 3181 3180 3180 3180 3180 3181 3181 3180 3180 3181 3181 3181 3180 3179 3179 3178 3179 3179 3179 3180 3180 3180 3180 3180 3181 3181 3182 3183 3183 3183 3183 3183 3184 3183 3184 3183 3183 3182
3173 3174 3177 3178 3180 3181 3180 3180 3180 3180 3180 3180 3180 3180 3181 3181 3181 3181 3180 3180 3179 3179 3178 3178 3179 3179 3179 3180 3181 3181 3181 3181 3183 3183 3183 3183 3184 3185 3185 3185 3185 3185 3183
3172 3174 3176 3177 3179 3180 3180 3180 3180 3180 3180 3180 3180 3180 3181 3181 3181 3181 3181 3180 3180 3180 3179 3179 3179 3179 3178 3179 3180 3180 3180 3182 3181 3181 3182 3182 3182 3184 3184 3185 3185 3185 3185
3170 3172 3174 3175 3177 3179 3179 3180 3180 3180 3180 3180 3180 3180 3180 3180 3181 3180 3180 3180 3180 3180 3180 3179 3179 3179 3179 3179 3178 3178 3179 3180 3180 3180 3181 3182 3182 3182 3183 3184 3185 3185 3185
3169 3170 3172 3174 3175 3176 3178 3179 3179 3179 3180 3180 3180 3180 3180 3180 3179 3179 3179 3179 3179 3179 3179 3179 3178 3178 3178 3178 3178 3178 3179 3180 3179 3180 3180 3180 3180 3181 3181 3182 3183 3185 3185
3167 3169 3170 3172 3173 3174 3175 3176 3177 3177 3178 3178 3179 3179 3179 3179 3179 3179 3178 3178 3178 3178 3178 3178 3178 3178 3178 3178 3177 3176 3177 3178 3178 3179 3180 3181 3181 3181 3181 3182 3182 3183 3184
3166 3166 3168 3170 3171 3172 3173 3174 3174 3175 3176 3177 3177 3177 3177 3177 3177 3177 3177 3177 3177 3176 3176 3176 3176 3176 3175 3176 3175 3176 3176 3176 3176 3176 3177 3178 3179 3180 3180 3181 3181 3182 3182
3164 3166 3167 3168 3169 3171 3171 3172 3172 3172 3173 3174 3174 3174 3174 3174 3174 3174 3174 3174 3174 3174 3174 3175 3174 3174 3173 3173 3173 3173 3174 3174 3174 3173 3174 3175 3176 3177 3178 3178 3179 3180 3181
3163 3164 3166 3167 3167 3167 3169 3169 3169 3169 3170 3170 3170 3170 3170 3170 3170 3170 3170 3170 3170 3171 3171 3171 3171 3171 3170 3170 3171 3171 3171 3171 3172 3172 3172 3172 3174 3175 3175 3176 3177 3177 3178
3162 3163 3164 3164 3165 3165 3165 3166 3165 3165 3165 3165 3166 3165 3166 3166 3166 3166 3166 3166 3166 3166 3167 3167 3167 3167 3167 3167 3168 3168 3168 3168 3168 3169 3169 3170 3171 3172 3173 3173 3173 3174 3175
3159 3160 3160 3161 3161 3162 3162 3162 3161 3161 3161 3160 3160 3160 3160 3160 3160 3160 3160 3161 3161 3161 3161 3161 3162 3162 3163 3164 3164 3164 3165 3164 3165 3165 3167 3168 3168 3169 3170 3171 3171 3171 3172
3157 3157 3157 3157 3157 3157 3156 3156 3156 3156 3156 3155 3154 3154 3154 3154 3153 3153 3153 3153 3154 3154 3155 3155 3155 3156 3156 3158 3158 3159 3160 3160 3161 3161 3162 3163 3164 3165 3166 3166 3166 3167 3168
3152 3152 3152 3152 3152 3152 3152 3151 3151 3151 3150 3150 3149 3149 3148 3148 3147 3146 3146 3146 3146 3147 3147 3147 3148 3148 3149 3150 3151 3152 3153 3154 3155 3157 3157 3158 3158 3159 3160 3160 3161 3162 3164
3146 3147 3147 3147 3147 3147 3147 3146 3146 3146 3145 3144 3145 3144 3143 3142 3142 3141 3141 3140 3139 3140 3140 3140 3140 3140 3141 3142 3143 3144 3145 3147 3148 3150 3151 3152 3152 3154 3154 3155 3155 3156 3158
3143 3144 3144 3143 3143 3143 3143 3142 3142 3142 3141 3140 3140 3139 3138 3138 3137 3136 3135 3134 3133 3133 3133 3133 3133 3132 3133 3133 3134 3134 3136 3138 3140 3142 3143 3145 3146 3148 3149 3150 3150 3150 3151
3136 3136 3137 3137 3138 3138 3138 3138 3138 3138 3137 3137 3136 3135 3134 3133 3133 3132 3131 3129 3128 3127 3127 3126 3125 3125 3125 3125 3125 3125 3126 3128 3130 3132 3133 3136 3137 3139 3141 3143 3144 3145 3145
3130 3131 3132 3133 3133 3133 3133 3134 3134 3134 3133 3133 3132 3132 3130 3129 3128 3127 3126 3124 3123 3122 3122 3120 3120 3119 3118 3118 3118 3118 3117 3118 3119 3121 3123 3125 3127 3129 3130 3133 3135 3136 3137
3126 3126 3127 3127 3128 3129 3129 3129 3129 3129 3128 3128 3128 3127 3126 3125 3123 3121 3120 3119 3118 3117 3115 3114 3112 3112 3112 3111 3110 3110 3109 3109 3110 3111 3112 3114 3116 3117 3119 3122 3125 3128 3130
3120 3121 3121 3121 3122 3122 3122 3122 3122 3122 3121 3121 3121 3121 3120 3119 3118 3116 3115 3113 3112 3110 3109 3107 3105 3103 3103 3103 3103 3103 3102 3100 3100 3101 3102 3103 3104 3106 3107 3110 3114 3117 3120
3115 3116 3117 3117 3117 3117 3117 3117 3116 3116 3116 3116 3115 3114 3113 3112 3110 3109 3107 3106 3104 3102 3100 3099 3099 3097 3093 3092 3093 3096 3095 3093 3092 3090 3090 3092 3093 3094 3096 3098 3102 3106 3110
3109 3111 3111 3112 3112 3111 3111 3111 3111 3111 3110 3109 3108 3107 3106 3104 3103 3101 3099 3097 3095 3093 3092 3090 3089 3088 3086 3081 3081 3080 3082 3089 3088 3084 3082 3081 3081 3083 3085 3087 3090 3093 3097
3102 3103 3104 3105 3106 3106 3106 3107 3107 3106 3104 3103 3102 3101 3099 3097 3095 3093 3091 3089 3087 3085 3084 3082 3080 3078 3077 3074 3069 3068 3065 3065 3072 3078 3078 3074 3071 3071 3073 3075 3077 3080 3084
3094 3096 3098 3099 3099 3100 3101 3101 3101 3099 3097 3096 3094 3093 3091 3090 3088 3086 3084 3083 3080 3078 3076 3074 3072 3070 3067 3066 3065 3061 3058 3054 3047 3048 3069 3067 3065 3063 3061 3062 3065 3068 3071
3087 3089 3091 3092 3093 3094 3095 3095 3094 3092 3090 3089 3088 3087 3085 3084 3082 3080 3079 3077 3075 3072 3070 3067 3064 3062 3059 3057 3056 3055 3055 3051 3045 3037 3030 3045 3057 3053 3052 3051 3052 3055 3059
3080 3083 3084 3086 3087 3088 3088 3088 3087 3085 3084 3083 3082 3080 3078 3077 3075 3074 3072 3070 3068 3066 3063 3060 3057 3055 3052 3050 3048 3046 3044 3042 3042 3035 3029 3026 3020 3045 3041 3043 3042 3043 3047